Torna al catalogo

CZ-6A DEB

AttivoPO
NORAD 61458·DEBRIS·🇨🇳 China

Lanciato Aug 6, 2024 da Taiyuan Satellite Launch Center

Loading…

Prossimi Passaggi (prossime 24 ore)

TLE

AggiornatoSource: Space-Track

Epoca: Sep 14, 2026, 10:31 UTC

1 61458U 24140ZQ  26257.43827078  .00006803  00000-0  57406-3 0  9998
2 61458  88.9346 249.5722 0113855 153.3821 207.3319 14.93019108110598

Traccia CZ-6A DEB in tempo reale con AllMySat

Download on the App Store